DAL8673 KRDU-KPWM

Flight info

Callsign DAL8673
Flight time 1h 34m
Altitude 35000
Route HURIC4 FEBEL GUILD SAWED Q97 SAILN CCC SCOGS3
Aircraft B738/M-SDE2E3FGHIRWXY/LB1

Departure

Time 2026-04-27 10:35
Airport Raleigh-Durham International Airport (KRDU)

Arrival

Time 2026-04-27 12:10
Airport Portland International Jetport (KPWM)
Time Latitude Longitude Altitude Speed Heading
2026-04-27 10:17 35.87512 -78.79578 386 ft 0 kts 317°
2026-04-27 10:29 35.87508 -78.79572 386 ft 2 kts 321°
2026-04-27 10:29 35.87497 -78.79562 387 ft 0 kts 316°
2026-04-27 10:29 35.87490 -78.79552 387 ft 2 kts 295°
2026-04-27 10:30 35.87488 -78.79534 388 ft 2 kts 258°
2026-04-27 10:30 35.87493 -78.79520 388 ft 0 kts 229°
2026-04-27 10:30 35.87497 -78.79514 388 ft 1 kts 223°
2026-04-27 10:30 35.87499 -78.79513 388 ft 0 kts 224°
2026-04-27 10:32 35.87487 -78.79527 388 ft 6 kts 224°
2026-04-27 10:32 35.87431 -78.79594 388 ft 15 kts 224°
2026-04-27 10:32 35.87398 -78.79718 382 ft 19 kts 310°
2026-04-27 10:33 35.87478 -78.79826 376 ft 15 kts 304°
2026-04-27 10:33 35.87476 -78.79964 368 ft 20 kts 224°
2026-04-27 10:33 35.87439 -78.80009 367 ft 9 kts 224°
2026-04-27 10:33 35.87408 -78.80048 366 ft 9 kts 234°
2026-04-27 10:34 35.87429 -78.80161 361 ft 18 kts 316°
2026-04-27 10:34 35.87490 -78.80145 360 ft 0 kts 49°
2026-04-27 10:34 35.87538 -78.80084 362 ft 25 kts 45°
2026-04-27 10:34 35.87830 -78.79723 373 ft 94 kts 45°
2026-04-27 10:35 35.88450 -78.78962 399 ft 156 kts 44°
2026-04-27 10:35 35.89288 -78.77913 788 ft 186 kts 45°
2026-04-27 10:35 35.90003 -78.76453 1268 ft 215 kts 70°
2026-04-27 10:35 35.90132 -78.74590 1566 ft 221 kts 96°
2026-04-27 10:36 35.89637 -78.72794 1888 ft 224 kts 110°
2026-04-27 10:36 35.89016 -78.71023 2329 ft 226 kts 110°
2026-04-27 10:36 35.88492 -78.69192 2753 ft 227 kts 94°
2026-04-27 10:36 35.88599 -78.67273 3210 ft 239 kts 75°
2026-04-27 10:37 35.88852 -78.65131 3825 ft 260 kts 80°
2026-04-27 10:37 35.89059 -78.62906 4356 ft 265 kts 80°
2026-04-27 10:37 35.89270 -78.60618 4828 ft 268 kts 80°
2026-04-27 10:37 35.89481 -78.58331 5277 ft 272 kts 80°
2026-04-27 10:38 35.89695 -78.56009 5727 ft 275 kts 80°
2026-04-27 10:38 35.89912 -78.53648 6178 ft 279 kts 80°
2026-04-27 10:38 35.90132 -78.51253 6631 ft 283 kts 81°
2026-04-27 10:38 35.90352 -78.48850 7080 ft 287 kts 81°
2026-04-27 10:39 35.90575 -78.46405 7531 ft 290 kts 81°
2026-04-27 10:39 35.90804 -78.43888 7990 ft 294 kts 81°
2026-04-27 10:39 35.91030 -78.41401 8439 ft 298 kts 82°
2026-04-27 10:39 35.91263 -78.38834 8898 ft 301 kts 82°
2026-04-27 10:40 35.91494 -78.36276 9351 ft 304 kts 82°
2026-04-27 10:40 35.91730 -78.33667 9805 ft 308 kts 83°
2026-04-27 10:40 35.91975 -78.31020 10254 ft 311 kts 83°
2026-04-27 10:40 35.92232 -78.28354 10737 ft 325 kts 84°
2026-04-27 10:41 35.92505 -78.25509 11364 ft 343 kts 84°
2026-04-27 10:41 35.92786 -78.22572 11932 ft 349 kts 85°
2026-04-27 10:41 35.93073 -78.19538 12037 ft 354 kts 85°
2026-04-27 10:41 35.93356 -78.16560 12008 ft 350 kts 85°
2026-04-27 10:42 35.93639 -78.13570 12004 ft 347 kts 85°
2026-04-27 10:42 35.93919 -78.10609 12006 ft 347 kts 85°
2026-04-27 10:42 35.94197 -78.07680 12002 ft 348 kts 85°
2026-04-27 10:42 35.94480 -78.04690 11999 ft 348 kts 85°
2026-04-27 10:43 35.94756 -78.01753 11996 ft 348 kts 85°
2026-04-27 10:43 35.95036 -77.98786 11993 ft 348 kts 85°
2026-04-27 10:43 35.95314 -77.95819 11992 ft 348 kts 85°
2026-04-27 10:43 35.95593 -77.92851 11992 ft 348 kts 84°
2026-04-27 10:44 35.96238 -77.89966 11961 ft 350 kts 65°
2026-04-27 10:44 35.97382 -77.87352 12016 ft 350 kts 58°
2026-04-27 10:44 35.98680 -77.84817 11990 ft 350 kts 56°
2026-04-27 10:44 36.00037 -77.82293 11993 ft 349 kts 55°
2026-04-27 10:45 36.01391 -77.79816 11995 ft 349 kts 54°
2026-04-27 10:45 36.02755 -77.77334 11994 ft 349 kts 54°
2026-04-27 10:45 36.04106 -77.74878 11996 ft 349 kts 54°
2026-04-27 10:45 36.05483 -77.72376 11997 ft 349 kts 54°
2026-04-27 10:46 36.06836 -77.69916 11998 ft 349 kts 54°
2026-04-27 10:46 36.08186 -77.67461 11998 ft 348 kts 54°
2026-04-27 10:46 36.09545 -77.64986 12000 ft 348 kts 54°
2026-04-27 10:46 36.10911 -77.62498 11997 ft 348 kts 54°
2026-04-27 10:47 36.12274 -77.60014 11999 ft 348 kts 54°
2026-04-27 10:47 36.13637 -77.57528 11999 ft 348 kts 54°
2026-04-27 10:47 36.14979 -77.55078 12040 ft 346 kts 54°
2026-04-27 10:47 36.16317 -77.52634 12537 ft 347 kts 54°
2026-04-27 10:48 36.17696 -77.50114 12964 ft 353 kts 54°
2026-04-27 10:48 36.19076 -77.47589 13398 ft 357 kts 54°
2026-04-27 10:48 36.20466 -77.45044 13826 ft 359 kts 54°
2026-04-27 10:48 36.21858 -77.42494 14254 ft 362 kts 54°
2026-04-27 10:49 36.23283 -77.39880 14688 ft 365 kts 55°
2026-04-27 10:49 36.24691 -77.37298 15115 ft 368 kts 55°
2026-04-27 10:49 36.26126 -77.34663 15547 ft 371 kts 56°
2026-04-27 10:49 36.27582 -77.31988 15970 ft 374 kts 56°
2026-04-27 10:50 36.29044 -77.29298 16394 ft 376 kts 56°
2026-04-27 10:50 36.30491 -77.26639 16808 ft 379 kts 54°
2026-04-27 10:50 36.32256 -77.24171 17222 ft 380 kts 43°
2026-04-27 10:50 36.34179 -77.21917 17664 ft 384 kts 41°
2026-04-27 10:51 36.36140 -77.19694 18082 ft 386 kts 40°
2026-04-27 10:51 36.38126 -77.17467 18503 ft 389 kts 40°
2026-04-27 10:51 36.40155 -77.15194 18930 ft 392 kts 40°
2026-04-27 10:51 36.42159 -77.12949 19349 ft 395 kts 40°
2026-04-27 10:52 36.44208 -77.10651 19775 ft 398 kts 40°
2026-04-27 10:52 36.46274 -77.08337 20201 ft 401 kts 40°
2026-04-27 10:52 36.48333 -77.06025 20623 ft 405 kts 40°
2026-04-27 10:52 36.50431 -77.03670 21051 ft 407 kts 40°
2026-04-27 10:53 36.52528 -77.01313 21476 ft 410 kts 40°
2026-04-27 10:53 36.56779 -76.96532 22331 ft 416 kts 41°
2026-04-27 10:53 36.58933 -76.94105 22794 ft 418 kts 41°
2026-04-27 10:54 36.61071 -76.91695 23263 ft 421 kts 41°
2026-04-27 10:54 36.63250 -76.89236 23735 ft 424 kts 41°
2026-04-27 10:54 36.65424 -76.86780 24206 ft 427 kts 41°
2026-04-27 10:54 36.67641 -76.84277 24683 ft 430 kts 41°
2026-04-27 10:55 36.69844 -76.81784 25156 ft 433 kts 41°
2026-04-27 10:55 36.72067 -76.79266 25630 ft 436 kts 41°
2026-04-27 10:55 36.74318 -76.76717 26107 ft 440 kts 41°
2026-04-27 10:55 36.76564 -76.74169 26580 ft 444 kts 41°
2026-04-27 10:56 36.78851 -76.71574 27056 ft 447 kts 42°
2026-04-27 10:56 36.81161 -76.68951 27533 ft 451 kts 42°
2026-04-27 10:56 36.83499 -76.66293 28013 ft 455 kts 42°
2026-04-27 10:56 36.85822 -76.63650 28487 ft 459 kts 42°
2026-04-27 10:57 36.88175 -76.60972 28965 ft 462 kts 42°
2026-04-27 10:57 36.90564 -76.58250 29445 ft 465 kts 42°
2026-04-27 10:57 36.92951 -76.55524 29923 ft 467 kts 42°
2026-04-27 10:57 36.95322 -76.52819 30377 ft 470 kts 42°
2026-04-27 10:58 36.97740 -76.50056 30813 ft 473 kts 42°
2026-04-27 10:58 37.00163 -76.47288 31248 ft 475 kts 42°
2026-04-27 10:58 37.02619 -76.44476 31689 ft 478 kts 43°
2026-04-27 10:58 37.05074 -76.41665 32124 ft 480 kts 43°
2026-04-27 10:59 37.07512 -76.38869 32559 ft 481 kts 43°
2026-04-27 10:59 37.09987 -76.36030 32999 ft 482 kts 43°
2026-04-27 10:59 37.12432 -76.33222 33403 ft 483 kts 44°
2026-04-27 11:00 37.17382 -76.27516 34215 ft 484 kts 44°
2026-04-27 11:00 37.19873 -76.24650 34626 ft 483 kts 44°
2026-04-27 11:00 37.22322 -76.21825 34953 ft 486 kts 44°
2026-04-27 11:00 37.24829 -76.18928 34964 ft 496 kts 44°
2026-04-27 11:01 37.29990 -76.12962 35027 ft 514 kts 44°
2026-04-27 11:01 37.35316 -76.06791 35068 ft 531 kts 44°
2026-04-27 11:02 37.40710 -76.00536 35036 ft 529 kts 44°
2026-04-27 11:02 37.46095 -75.94270 35016 ft 526 kts 44°
2026-04-27 11:03 37.51450 -75.88031 35012 ft 528 kts 44°
2026-04-27 11:03 37.57297 -75.82484 35019 ft 529 kts 34°
2026-04-27 11:04 37.63391 -75.77319 35008 ft 529 kts 34°
2026-04-27 11:04 37.69473 -75.72166 35013 ft 529 kts 34°
2026-04-27 11:05 37.75547 -75.67002 35015 ft 529 kts 34°
2026-04-27 11:05 37.81605 -75.61845 35018 ft 528 kts 34°
2026-04-27 11:06 37.87698 -75.56644 35024 ft 529 kts 34°
2026-04-27 11:06 37.93795 -75.51434 35027 ft 529 kts 34°
2026-04-27 11:07 37.99838 -75.46258 35029 ft 529 kts 34°
2026-04-27 11:07 38.05933 -75.41026 35031 ft 529 kts 34°
2026-04-27 11:08 38.12011 -75.35800 35020 ft 529 kts 34°
2026-04-27 11:08 38.18044 -75.30598 35011 ft 528 kts 34°
2026-04-27 11:09 38.24104 -75.25366 35012 ft 529 kts 35°
2026-04-27 11:09 38.30195 -75.20094 35014 ft 529 kts 35°
2026-04-27 11:10 38.36235 -75.14857 35014 ft 528 kts 35°
2026-04-27 11:10 38.42274 -75.09610 35017 ft 528 kts 35°
2026-04-27 11:11 38.48343 -75.04331 35016 ft 526 kts 35°
2026-04-27 11:11 38.54396 -74.99048 35068 ft 530 kts 36°
2026-04-27 11:12 38.60445 -74.93757 35046 ft 528 kts 36°
2026-04-27 11:12 38.66453 -74.88493 35025 ft 525 kts 36°
2026-04-27 11:13 38.72431 -74.83243 35030 ft 524 kts 36°
2026-04-27 11:13 38.78419 -74.77974 35032 ft 524 kts 36°
2026-04-27 11:14 38.84404 -74.72695 35034 ft 525 kts 36°
2026-04-27 11:14 38.90436 -74.67366 35033 ft 526 kts 36°
2026-04-27 11:15 38.96453 -74.62041 35036 ft 531 kts 36°
2026-04-27 11:15 39.02552 -74.56623 35047 ft 537 kts 36°
2026-04-27 11:16 39.08692 -74.51170 35043 ft 539 kts 36°
2026-04-27 11:16 39.14823 -74.45709 35025 ft 537 kts 36°
2026-04-27 11:17 39.20957 -74.40232 35027 ft 538 kts 36°
2026-04-27 11:17 39.27089 -74.34742 35026 ft 538 kts 37°
2026-04-27 11:18 39.33215 -74.29248 35023 ft 538 kts 37°
2026-04-27 11:18 39.39318 -74.23762 35024 ft 538 kts 37°
2026-04-27 11:19 39.45454 -74.18237 35024 ft 537 kts 37°
2026-04-27 11:19 39.51540 -74.12740 35027 ft 538 kts 37°
2026-04-27 11:20 39.57677 -74.07189 35032 ft 538 kts 37°
2026-04-27 11:20 39.63753 -74.01680 35037 ft 538 kts 37°
2026-04-27 11:21 39.69855 -73.96133 35039 ft 538 kts 37°
2026-04-27 11:21 39.75991 -73.90547 35041 ft 538 kts 37°
2026-04-27 11:22 39.82094 -73.84975 35043 ft 538 kts 37°
2026-04-27 11:22 39.88189 -73.79404 35045 ft 537 kts 37°
2026-04-27 11:23 39.94254 -73.73844 35045 ft 538 kts 37°
2026-04-27 11:23 40.00358 -73.68233 35047 ft 538 kts 37°
2026-04-27 11:24 40.06456 -73.62618 35047 ft 538 kts 37°
2026-04-27 11:24 40.12517 -73.57025 35026 ft 538 kts 37°
2026-04-27 11:25 40.18605 -73.51395 35020 ft 537 kts 37°
2026-04-27 11:25 40.24685 -73.45758 35019 ft 538 kts 37°
2026-04-27 11:26 40.30738 -73.40003 35018 ft 538 kts 38°
2026-04-27 11:26 40.36739 -73.34268 35019 ft 537 kts 38°
2026-04-27 11:27 40.42760 -73.28500 35045 ft 537 kts 38°
2026-04-27 11:27 40.48772 -73.22726 35037 ft 537 kts 39°
2026-04-27 11:28 40.54762 -73.16959 35024 ft 536 kts 38°
2026-04-27 11:28 40.60736 -73.11200 35020 ft 530 kts 39°
2026-04-27 11:29 40.66640 -73.05489 35024 ft 526 kts 38°
2026-04-27 11:29 40.72507 -72.99806 35027 ft 522 kts 38°
2026-04-27 11:30 40.78320 -72.94160 35029 ft 519 kts 38°
2026-04-27 11:30 40.84094 -72.88542 35033 ft 519 kts 38°
2026-04-27 11:31 40.89885 -72.82893 35036 ft 520 kts 38°
2026-04-27 11:31 40.95418 -72.76818 35057 ft 517 kts 45°
2026-04-27 11:32 41.00661 -72.70323 34998 ft 520 kts 46°
2026-04-27 11:32 41.03271 -72.67075 34772 ft 521 kts 46°
2026-04-27 11:32 41.05885 -72.63815 34531 ft 519 kts 47°
2026-04-27 11:33 41.08500 -72.60551 34290 ft 517 kts 47°
2026-04-27 11:33 41.11136 -72.57256 34042 ft 515 kts 47°
2026-04-27 11:33 41.13717 -72.54024 33778 ft 514 kts 48°
2026-04-27 11:33 41.16305 -72.50777 33519 ft 512 kts 48°
2026-04-27 11:34 41.18866 -72.47562 33257 ft 509 kts 48°
2026-04-27 11:34 41.21454 -72.44312 32994 ft 507 kts 48°
2026-04-27 11:34 41.23990 -72.41123 32735 ft 505 kts 48°
2026-04-27 11:34 41.26537 -72.37918 32478 ft 503 kts 48°
2026-04-27 11:35 41.29062 -72.34737 32222 ft 500 kts 49°
2026-04-27 11:35 41.31565 -72.31580 31962 ft 497 kts 48°
2026-04-27 11:35 41.34049 -72.28443 31705 ft 495 kts 48°
2026-04-27 11:35 41.36537 -72.25298 31447 ft 493 kts 48°
2026-04-27 11:36 41.39010 -72.22169 31191 ft 491 kts 48°
2026-04-27 11:36 41.41475 -72.19045 30935 ft 488 kts 48°
2026-04-27 11:36 41.43926 -72.15934 30679 ft 486 kts 48°
2026-04-27 11:36 41.46361 -72.12845 30427 ft 484 kts 48°
2026-04-27 11:37 41.48763 -72.09791 30176 ft 482 kts 48°
2026-04-27 11:37 41.51179 -72.06716 29923 ft 480 kts 48°
2026-04-27 11:37 41.53593 -72.03642 29670 ft 477 kts 48°
2026-04-27 11:37 41.55957 -72.00626 29421 ft 475 kts 48°
2026-04-27 11:38 41.58321 -71.97610 29173 ft 473 kts 48°
2026-04-27 11:38 41.60696 -71.94572 28923 ft 471 kts 48°
2026-04-27 11:38 41.63047 -71.91566 28675 ft 469 kts 48°
2026-04-27 11:38 41.65404 -71.88546 28426 ft 467 kts 48°
2026-04-27 11:39 41.67718 -71.85580 28181 ft 465 kts 48°
2026-04-27 11:39 41.70059 -71.82574 27932 ft 463 kts 48°
2026-04-27 11:39 41.72372 -71.79604 27688 ft 462 kts 48°
2026-04-27 11:39 41.74682 -71.76631 27441 ft 460 kts 48°
2026-04-27 11:40 41.76982 -71.73671 27199 ft 459 kts 48°
2026-04-27 11:40 41.79265 -71.70729 26956 ft 456 kts 48°
2026-04-27 11:40 41.81527 -71.67811 26713 ft 454 kts 48°
2026-04-27 11:40 41.83698 -71.64799 26419 ft 448 kts 57°
2026-04-27 11:41 41.85334 -71.61298 26110 ft 436 kts 69°
2026-04-27 11:41 41.86658 -71.57722 25900 ft 432 kts 70°
2026-04-27 11:41 41.87958 -71.54122 25656 ft 430 kts 70°
2026-04-27 11:41 41.89257 -71.50517 25418 ft 429 kts 70°
2026-04-27 11:42 41.90559 -71.46896 25177 ft 428 kts 70°
2026-04-27 11:42 41.91846 -71.43312 24937 ft 426 kts 70°
2026-04-27 11:42 41.93135 -71.39722 24696 ft 424 kts 70°
2026-04-27 11:42 41.94394 -71.36205 24459 ft 422 kts 70°
2026-04-27 11:43 41.95669 -71.32645 24218 ft 420 kts 71°
2026-04-27 11:43 41.96916 -71.29157 23978 ft 418 kts 71°
2026-04-27 11:43 41.98182 -71.25609 23734 ft 416 kts 71°
2026-04-27 11:43 41.99415 -71.22150 23495 ft 414 kts 71°
2026-04-27 11:44 42.00652 -71.18676 23256 ft 412 kts 71°
2026-04-27 11:44 42.01890 -71.15194 23014 ft 410 kts 71°
2026-04-27 11:44 42.03111 -71.11755 22775 ft 408 kts 71°
2026-04-27 11:44 42.04321 -71.08346 22537 ft 406 kts 71°
2026-04-27 11:45 42.05541 -71.04902 22296 ft 405 kts 71°
2026-04-27 11:45 42.06341 -71.02641 22139 ft 403 kts 70°
2026-04-27 11:45 42.07976 -70.98157 21804 ft 404 kts 65°
2026-04-27 11:45 42.09691 -70.95120 21491 ft 407 kts 53°
2026-04-27 11:46 42.11798 -70.92571 21170 ft 411 kts 38°
2026-04-27 11:46 42.14320 -70.90797 20857 ft 412 kts 22°
2026-04-27 11:46 42.17045 -70.89625 20638 ft 409 kts 19°
2026-04-27 11:46 42.19718 -70.88444 20379 ft 409 kts 20°
2026-04-27 11:47 42.22420 -70.87207 20125 ft 407 kts 20°
2026-04-27 11:47 42.25059 -70.85981 19871 ft 405 kts 20°
2026-04-27 11:47 42.27718 -70.84740 19615 ft 402 kts 20°
2026-04-27 11:47 42.30350 -70.83511 19359 ft 399 kts 20°
2026-04-27 11:48 42.32955 -70.82291 19106 ft 397 kts 20°
2026-04-27 11:48 42.35529 -70.81086 18855 ft 395 kts 20°
2026-04-27 11:48 42.38097 -70.79881 18603 ft 392 kts 20°
2026-04-27 11:48 42.40696 -70.78662 18347 ft 390 kts 20°
2026-04-27 11:49 42.43243 -70.77458 18094 ft 388 kts 22°
2026-04-27 11:49 42.45719 -70.76125 17846 ft 386 kts 24°
2026-04-27 11:49 42.48212 -70.74762 17594 ft 384 kts 24°
2026-04-27 11:49 42.50684 -70.73405 17342 ft 382 kts 24°
2026-04-27 11:50 42.53104 -70.72077 17094 ft 380 kts 24°
2026-04-27 11:50 42.55549 -70.70734 16844 ft 378 kts 24°
2026-04-27 11:50 42.57962 -70.69407 16594 ft 376 kts 24°
2026-04-27 11:50 42.60374 -70.68079 16345 ft 374 kts 24°
2026-04-27 11:51 42.62798 -70.66744 16094 ft 372 kts 24°
2026-04-27 11:51 42.65174 -70.65434 15847 ft 371 kts 23°
2026-04-27 11:51 42.69877 -70.62666 15350 ft 367 kts 26°
2026-04-27 11:52 42.72159 -70.61236 15104 ft 365 kts 26°
2026-04-27 11:52 42.74472 -70.59784 14855 ft 363 kts 26°
2026-04-27 11:52 42.76728 -70.58366 14611 ft 362 kts 26°
2026-04-27 11:52 42.79013 -70.56928 14362 ft 360 kts 26°
2026-04-27 11:53 42.81289 -70.55496 14114 ft 359 kts 26°
2026-04-27 11:53 42.83524 -70.54087 13870 ft 357 kts 26°
2026-04-27 11:53 42.85793 -70.52656 13575 ft 355 kts 26°
2026-04-27 11:53 42.87995 -70.51266 13339 ft 353 kts 26°
2026-04-27 11:54 42.90219 -70.49862 13091 ft 352 kts 26°
2026-04-27 11:54 42.92456 -70.48448 12846 ft 353 kts 26°
2026-04-27 11:54 42.94676 -70.47044 12603 ft 354 kts 26°
2026-04-27 11:54 42.96883 -70.45647 12362 ft 354 kts 26°
2026-04-27 11:55 42.99144 -70.44214 12115 ft 354 kts 26°
2026-04-27 11:55 43.01343 -70.42809 11873 ft 354 kts 28°
2026-04-27 11:55 43.03469 -70.41100 11632 ft 353 kts 33°
2026-04-27 11:55 43.05554 -70.39325 11393 ft 354 kts 33°
2026-04-27 11:56 43.07632 -70.37533 11152 ft 352 kts 33°
2026-04-27 11:56 43.09683 -70.35758 10997 ft 348 kts 33°
2026-04-27 11:56 43.11724 -70.33992 10972 ft 347 kts 33°
2026-04-27 11:56 43.13776 -70.32212 10987 ft 349 kts 33°
2026-04-27 11:57 43.15804 -70.30451 10986 ft 347 kts 34°
2026-04-27 11:57 43.17806 -70.28699 10924 ft 332 kts 34°
2026-04-27 11:57 43.19702 -70.27031 10645 ft 326 kts 33°
2026-04-27 11:57 43.21738 -70.25705 10287 ft 320 kts 14°
2026-04-27 11:58 43.23876 -70.25347 9934 ft 306 kts 354°
2026-04-27 11:58 43.25921 -70.25813 9698 ft 292 kts 343°
2026-04-27 11:58 43.27874 -70.26519 9427 ft 290 kts 332°
2026-04-27 11:58 43.29510 -70.27984 9180 ft 278 kts 311°
2026-04-27 11:59 43.30870 -70.29812 9022 ft 275 kts 311°
2026-04-27 11:59 43.32282 -70.31619 9008 ft 276 kts 312°
2026-04-27 11:59 43.33689 -70.33391 9002 ft 278 kts 312°
2026-04-27 11:59 43.35118 -70.35192 8997 ft 278 kts 310°
2026-04-27 12:00 43.36475 -70.37069 9000 ft 277 kts 309°
2026-04-27 12:00 43.37824 -70.38958 8997 ft 276 kts 309°
2026-04-27 12:00 43.39171 -70.40846 8997 ft 276 kts 309°
2026-04-27 12:00 43.40497 -70.42709 8998 ft 275 kts 309°
2026-04-27 12:01 43.41832 -70.44585 8998 ft 274 kts 309°
2026-04-27 12:01 43.43171 -70.46467 8713 ft 271 kts 309°
2026-04-27 12:01 43.44458 -70.48276 8372 ft 258 kts 309°
2026-04-27 12:01 43.45690 -70.50010 7990 ft 249 kts 309°
2026-04-27 12:02 43.46880 -70.51688 7600 ft 242 kts 310°
2026-04-27 12:02 43.48035 -70.53317 7213 ft 236 kts 310°
2026-04-27 12:02 43.49175 -70.54927 6831 ft 233 kts 311°
2026-04-27 12:02 43.50296 -70.56510 6456 ft 232 kts 311°
2026-04-27 12:03 43.51420 -70.58096 6078 ft 230 kts 312°
2026-04-27 12:03 43.52511 -70.59634 5735 ft 219 kts 312°
2026-04-27 12:03 43.53556 -70.61110 5342 ft 215 kts 313°
2026-04-27 12:03 43.54606 -70.62579 4964 ft 216 kts 316°
2026-04-27 12:04 43.55931 -70.63567 4571 ft 222 kts 342°
2026-04-27 12:04 43.57435 -70.63722 4214 ft 218 kts
2026-04-27 12:04 43.58903 -70.63464 3853 ft 209 kts
2026-04-27 12:04 43.60306 -70.63112 3460 ft 203 kts
2026-04-27 12:05 43.61673 -70.62738 3070 ft 199 kts 10°
2026-04-27 12:05 43.62893 -70.61892 2636 ft 203 kts 37°
2026-04-27 12:05 43.63756 -70.60350 2316 ft 200 kts 58°
2026-04-27 12:05 43.64365 -70.58724 2261 ft 184 kts 62°
2026-04-27 12:06 43.64888 -70.57176 2228 ft 171 kts 63°
2026-04-27 12:06 43.65366 -70.55718 2254 ft 164 kts 63°
2026-04-27 12:06 43.65837 -70.54293 2263 ft 161 kts 62°
2026-04-27 12:06 43.66135 -70.52803 2271 ft 168 kts 91°
2026-04-27 12:07 43.65939 -70.51183 2350 ft 174 kts 99°
2026-04-27 12:07 43.65751 -70.49474 2346 ft 184 kts 97°
2026-04-27 12:07 43.65601 -70.47689 2249 ft 194 kts 95°
2026-04-27 12:07 43.65467 -70.45808 2023 ft 198 kts 95°
2026-04-27 12:08 43.65341 -70.43896 1764 ft 200 kts 95°
2026-04-27 12:08 43.65213 -70.41996 1498 ft 202 kts 94°
2026-04-27 12:08 43.65083 -70.40054 1203 ft 200 kts 95°
2026-04-27 12:08 43.64961 -70.38192 908 ft 191 kts 95°
2026-04-27 12:09 43.64843 -70.36448 636 ft 174 kts 94°
2026-04-27 12:09 43.64733 -70.34827 391 ft 162 kts 95°
2026-04-27 12:09 43.64636 -70.33348 194 ft 149 kts 95°
2026-04-27 12:09 43.64546 -70.31979 70 ft 133 kts 95°
2026-04-27 12:10 43.64494 -70.31177 64 ft 20 kts 94°
2026-04-27 12:10 43.64583 -70.31065 62 ft 17 kts 23°
2026-04-27 12:10 43.64625 -70.30995 61 ft 7 kts 30°
2026-04-27 12:10 43.64673 -70.30981 61 ft 5 kts
2026-04-27 12:11 43.64675 -70.30981 61 ft 0 kts